Weather History for Madison, MN

Change the Weather History Date:

Thursday, October 17, 2013

  Actual Average (KAQP) Record (KAQP)
Temperature  
Mean Temperature 45 °F -  
Max Temperature 51 °F 55 °F 71 °F (2000)
Min Temperature 39 °F 34 °F 28 °F (2001)
Degree Days  
Heating Degree Days 20    
Moisture  
Dew Point 39 °F    
Average Humidity 83    
Maximum Humidity 93    
Minimum Humidity 76    
Precipitation  
Precipitation 0.15 in - - ()
Sea Level Pressure  
Sea Level Pressure 29.88 in    
Wind  
Wind Speed 8 mph (WNW)    
Max Wind Speed 23 mph    
Max Gust Speed 32 mph    
Visibility 10 miles    
Events Rain    
Averages and records for this station are not official NWS values.
T = Trace of Precipitation, MM = Missing Value Source: NWS Daily Summary

Daily Weather History Graph

Daily Weather History Graph

Search for Another Location

Airport:

Trip Planner

Search our weather history database for the weather conditions in past years. The results will help you decide how hot, cold, wet, or windy it might be!

Date:

Astronomy

Oct. 17, 2013 Rise Set
Actual Time 7:43 AM CDT 6:35 PM CDT
Civil Twilight 7:13 AM CDT 7:05 PM CDT
Nautical Twilight 6:39 AM CDT 7:39 PM CDT
Astronomical Twilight 6:05 AM CDT 8:13 PM CDT
Moon 5:52 PM CDT (10/17) 6:14 AM CDT (10/17)
Length of Visible Light 11h 51m
Length of Day
10h 52m
Waxing Gibbous, 98% of the Moon is Illuminated
Oct 17
Waxing Gibbous
Oct 18
Full
Oct 26
Last Quarter
Nov 3
New
Nov 9
First Quarter

Hourly Weather History & Observations

Time (CDT) Temp. Windchill Dew Point Humidity Pressure Visibility Wind Dir Wind Speed Gust Speed Precip Events Conditions
12:13 AM 39.2 °F 35.0 °F 35.6 °F 87% 29.86 in 10.0 mi SW 5.8 mph - N/A   Clear
12:34 AM 39.2 °F 35.0 °F 35.6 °F 87% 29.85 in 10.0 mi SW 5.8 mph - N/A   Clear
12:54 AM 39.2 °F 35.0 °F 35.6 °F 87% 29.85 in 10.0 mi SW 5.8 mph - N/A   Clear
1:13 AM 39.2 °F 35.0 °F 35.6 °F 87% 29.85 in 10.0 mi SW 5.8 mph - N/A   Clear
1:34 AM 39.2 °F 34.2 °F 35.6 °F 87% 29.85 in 10.0 mi SSW 6.9 mph - N/A   Clear
1:54 AM 39.2 °F 35.0 °F 35.6 °F 87% 29.84 in 10.0 mi SW 5.8 mph - N/A   Clear
2:13 AM 42.8 °F 39.3 °F 37.4 °F 81% 29.84 in 10.0 mi SW 5.8 mph - N/A   Clear
2:34 AM 42.8 °F 40.1 °F 37.4 °F 81% 29.84 in 10.0 mi SW 4.6 mph - N/A   Clear
2:54 AM 42.8 °F 39.3 °F 37.4 °F 81% 29.84 in 10.0 mi SW 5.8 mph - N/A   Clear
3:13 AM 42.8 °F 40.1 °F 39.2 °F 87% 29.83 in 10.0 mi SW 4.6 mph - N/A   Clear
3:34 AM 42.8 °F 40.1 °F 37.4 °F 81% 29.83 in 10.0 mi SSW 4.6 mph - N/A   Clear
3:54 AM 44.6 °F 42.2 °F 39.2 °F 81% 29.82 in 10.0 mi SW 4.6 mph - N/A   Clear
4:13 AM 44.6 °F 42.2 °F 39.2 °F 81% 29.82 in 10.0 mi SW 4.6 mph - N/A   Clear
4:33 AM 44.6 °F 43.1 °F 39.2 °F 81% 29.82 in 10.0 mi SW 3.5 mph - N/A   Clear
4:54 AM 42.8 °F 40.1 °F 37.4 °F 81% 29.81 in 10.0 mi SW 4.6 mph - N/A   Clear
5:14 AM 42.8 °F 40.1 °F 37.4 °F 81% 29.81 in 10.0 mi SW 4.6 mph - N/A   Clear
5:33 AM 42.8 °F 40.1 °F 39.2 °F 87% 29.81 in 10.0 mi SW 4.6 mph - N/A   Scattered Clouds
5:54 AM 44.6 °F 43.1 °F 39.2 °F 81% 29.81 in 10.0 mi SW 3.5 mph - N/A   Overcast
6:14 AM 44.6 °F - 39.2 °F 81% 29.80 in 10.0 mi Calm Calm - N/A   Unknown
6:33 AM 44.6 °F - 39.2 °F 81% 29.80 in 10.0 mi Calm Calm - N/A   Overcast
6:54 AM 44.6 °F 43.1 °F 39.2 °F 81% 29.80 in 10.0 mi SSW 3.5 mph - N/A   Overcast
7:14 AM 44.6 °F - 39.2 °F 81% 29.81 in 10.0 mi Calm Calm - N/A   Overcast
7:33 AM 44.6 °F 42.2 °F 39.2 °F 81% 29.81 in 10.0 mi West 4.6 mph - N/A   Overcast
7:54 AM 44.6 °F 41.4 °F 39.2 °F 81% 29.81 in 10.0 mi West 5.8 mph - N/A   Unknown
8:13 AM 46.4 °F 42.9 °F 39.2 °F 76% 29.81 in 10.0 mi West 6.9 mph - N/A   Overcast
8:33 AM 46.4 °F 42.9 °F 39.2 °F 76% 29.82 in 10.0 mi West 6.9 mph - N/A   Overcast
8:54 AM 46.4 °F 42.4 °F 41.0 °F 81% 29.82 in 10.0 mi WNW 8.1 mph - N/A   Overcast
9:13 AM 48.2 °F - 42.8 °F 82% 29.83 in 10.0 mi WNW 8.1 mph - N/A   Overcast
9:34 AM 48.2 °F - 42.8 °F 82% 29.83 in 10.0 mi WNW 5.8 mph - N/A   Overcast
9:53 AM 48.2 °F - 42.8 °F 82% 29.83 in 10.0 mi NW 8.1 mph - N/A   Mostly Cloudy
10:13 AM 48.2 °F - 44.6 °F 87% 29.84 in 10.0 mi NNW 13.8 mph - N/A   Mostly Cloudy
10:29 AM 50.0 °F - 44.6 °F 82% 29.84 in 10.0 mi NNW 13.8 mph 18.4 mph N/A   Scattered Clouds
10:53 AM 50.0 °F - 44.6 °F 82% 29.84 in 10.0 mi NNW 11.5 mph - N/A   Scattered Clouds
11:14 AM 51.8 °F - 44.6 °F 76% 29.85 in 10.0 mi NNW 13.8 mph - N/A   Scattered Clouds
11:33 AM 50.0 °F - 44.6 °F 82% 29.85 in 10.0 mi NNW 20.7 mph 24.2 mph N/A   Mostly Cloudy
11:54 AM 50.0 °F - 44.6 °F 82% 29.86 in 10.0 mi NNW 18.4 mph 24.2 mph N/A   Mostly Cloudy
12:14 PM 48.2 °F - 44.6 °F 87% 29.86 in 10.0 mi NNW 15.0 mph 27.6 mph N/A   Mostly Cloudy
12:33 PM 48.2 °F - 42.8 °F 82% 29.87 in 10.0 mi NNW 21.9 mph 26.5 mph N/A   Mostly Cloudy
12:54 PM 48.2 °F - 44.6 °F 87% 29.88 in 7.0 mi NNW 16.1 mph 24.2 mph N/A   Mostly Cloudy
1:13 PM 46.4 °F 39.0 °F 42.8 °F 87% 29.88 in 7.0 mi NNW 19.6 mph 26.5 mph N/A   Mostly Cloudy
1:33 PM 44.6 °F 35.9 °F 39.2 °F 81% 29.88 in 10.0 mi NNW 23.0 mph 28.8 mph N/A   Mostly Cloudy
1:54 PM 44.6 °F 36.6 °F 39.2 °F 81% 29.88 in 10.0 mi NNW 19.6 mph 28.8 mph N/A   Overcast
2:13 PM 44.6 °F 35.9 °F 39.2 °F 81% 29.88 in 10.0 mi NNW 23.0 mph 31.1 mph N/A   Overcast
2:33 PM 44.6 °F 36.4 °F 39.2 °F 81% 29.89 in 7.0 mi NNW 20.7 mph 32.2 mph N/A   Overcast
2:54 PM 42.8 °F 34.5 °F 39.2 °F 87% 29.89 in 10.0 mi NNW 18.4 mph 28.8 mph N/A Rain Light Rain
3:13 PM 42.8 °F 34.3 °F 39.2 °F 87% 29.90 in 10.0 mi NNW 19.6 mph 27.6 mph N/A Rain Light Rain
3:33 PM 42.8 °F 34.0 °F 39.2 °F 87% 29.91 in 7.0 mi NNW 20.7 mph 27.6 mph 0.01 in   Scattered Clouds
3:54 PM 42.8 °F 35.1 °F 39.2 °F 87% 29.91 in 10.0 mi NNW 16.1 mph 26.5 mph 0.02 in Rain Light Rain
4:13 PM 42.8 °F 35.4 °F 39.2 °F 87% 29.91 in 10.0 mi NW 15.0 mph 24.2 mph 0.01 in Rain Light Rain
4:34 PM 42.8 °F 35.8 °F 39.2 °F 87% 29.92 in 7.0 mi NNW 13.8 mph - 0.04 in Rain Light Rain
4:54 PM 42.8 °F 35.1 °F 39.2 °F 87% 29.92 in 10.0 mi NNW 16.1 mph 25.3 mph 0.05 in Rain Light Rain
5:13 PM 42.8 °F 35.8 °F 39.2 °F 87% 29.92 in 10.0 mi NNW 13.8 mph - 0.01 in Rain Light Rain
5:34 PM 42.8 °F 37.0 °F 39.2 °F 87% 29.93 in 10.0 mi NNW 10.4 mph - 0.03 in Rain Light Rain
5:54 PM 42.8 °F 38.6 °F 41.0 °F 93% 29.93 in 10.0 mi NW 6.9 mph - 0.04 in Rain Light Rain
6:13 PM 44.6 °F 40.2 °F 41.0 °F 87% 29.94 in 10.0 mi NNW 8.1 mph - 0.01 in Rain Light Rain
6:34 PM 44.6 °F 39.2 °F 41.0 °F 87% 29.94 in 10.0 mi NW 10.4 mph - 0.02 in Rain Rain
6:53 PM 44.6 °F 37.2 °F 39.2 °F 81% 29.94 in 10.0 mi NNW 17.3 mph - 0.03 in Rain Light Rain
7:14 PM 44.6 °F 38.8 °F 39.2 °F 81% 29.95 in 10.0 mi NNW 11.5 mph - 0.01 in Rain Light Rain
7:33 PM 44.6 °F 39.7 °F 39.2 °F 81% 29.95 in 10.0 mi NW 9.2 mph - 0.01 in   Scattered Clouds
7:53 PM 44.6 °F 39.2 °F 39.2 °F 81% 29.95 in 10.0 mi NW 10.4 mph 16.1 mph 0.01 in   Scattered Clouds
8:14 PM 44.6 °F 38.8 °F 39.2 °F 81% 29.96 in 10.0 mi NNW 11.5 mph - N/A   Drizzle
8:33 PM 44.6 °F 39.7 °F 39.2 °F 81% 29.96 in 10.0 mi NW 9.2 mph - N/A   Mostly Cloudy
8:53 PM 44.6 °F 40.7 °F 39.2 °F 81% 29.96 in 10.0 mi WNW 6.9 mph - N/A   Overcast
9:14 PM 42.8 °F 38.6 °F 39.2 °F 87% 29.96 in 10.0 mi West 6.9 mph - N/A   Overcast
9:33 PM 42.8 °F 38.0 °F 39.2 °F 87% 29.97 in 10.0 mi West 8.1 mph - N/A   Overcast
9:53 PM 42.8 °F 38.0 °F 39.2 °F 87% 29.97 in 10.0 mi WNW 8.1 mph - N/A   Overcast
10:14 PM 42.8 °F 38.0 °F 37.4 °F 81% 29.97 in 10.0 mi WNW 8.1 mph - N/A   Mostly Cloudy
10:33 PM 42.8 °F 37.5 °F 37.4 °F 81% 29.97 in 10.0 mi WNW 9.2 mph - N/A   Scattered Clouds
10:53 PM 42.8 °F 37.5 °F 37.4 °F 81% 29.98 in 10.0 mi WNW 9.2 mph - N/A   Mostly Cloudy
11:14 PM 41.0 °F 35.8 °F 35.6 °F 81% 29.98 in 10.0 mi WNW 8.1 mph - N/A   Scattered Clouds
11:33 PM 41.0 °F 37.1 °F 35.6 °F 81% 29.98 in 10.0 mi WNW 5.8 mph - N/A   Clear
11:54 PM 39.2 °F 34.2 °F 35.6 °F 87% 29.98 in 10.0 mi WNW 6.9 mph - N/A   Clear